Temperature
23 22 21 22 28 31 30 30 30 30 30 28 27 28 28 28 27 26 22 21 20 20 19 20 20 19 19 19 19 19 18 18 18 18 18 18 18 18 18 18 18 18 18 18 18 18 18 18 18
22 22 22 26 31 31 30 30 30 29 28 27 27 27 28 27 25 23 22 20 20 20 19 19 20 19 19 19 19 19 18 18 18 18 18 18 18 18 18 18 18 18 18 18 18 18 18 18 18
22 22 26 31 31 31 30 30 30 29 28 28 28 27 27 26 24 23 21 20 20 20 19 19 20 19 19 19 19 18 18 18 18 18 18 18 18 18 18 18 18 18 18 18 18 18 18 18 18
22 24 28 31 30 31 31 30 30 29 28 28 28 27 25 23 23 22 21 20 21 20 19 19 19 19 19 19 18 18 18 18 18 18 18 18 18 18 18 18 18 18 18 18 18 17 17 17 17
24 28 31 31 31 31 31 30 29 30 29 28 28 27 25 22 22 21 21 21 21 20 19 19 19 19 19 19 19 18 18 18 18 18 18 18 18 18 18 18 18 18 18 18 18 17 17 17 17
27 30 31 31 31 31 31 30 29 30 29 28 28 27 25 22 22 21 21 21 21 20 20 19 19 19 19 19 19 18 18 18 18 18 18 18 18 18 18 18 18 18 18 18 17 17 17 17 17
29 31 31 31 31 30 30 29 30 30 29 28 28 28 25 23 21 21 21 21 20 20 19 19 19 19 19 19 19 18 18 18 18 18 18 18 18 18 18 18 18 17 18 18 17 17 17 17 17
28 31 31 31 31 30 30 29 29 29 29 27 27 28 26 22 21 21 21 20 20 20 20 19 19 18 18 18 19 18 18 18 18 18 18 18 18 18 18 17 17 17 17 17 17 17 17 17 17
27 31 31 31 31 31 30 30 29 28 28 27 26 26 25 22 21 21 21 21 20 20 20 19 19 19 18 18 18 18 18 18 18 18 18 18 17 17 17 17 17 17 17 17 17 17 17 17 17
29 30 31 31 31 31 30 30 29 29 29 27 26 24 22 21 21 21 21 21 21 20 20 20 19 19 19 18 18 18 18 18 18 17 17 17 17 17 17 17 17 17 17 17 17 17 17 17 17
30 30 31 31 30 30 30 29 29 29 30 28 27 24 22 22 22 22 22 21 21 20 20 20 20 19 19 19 18 18 18 18 17 17 17 17 17 17 17 17 17 17 17 17 17 17 17 17 17
30 30 30 30 29 29 30 29 29 29 28 27 26 24 23 22 22 22 22 21 21 20 20 20 19 19 19 19 18 18 18 18 18 17 17 17 17 17 17 17 17 17 17 17 17 17 17 17 16
30 30 29 29 29 29 29 29 29 28 26 26 25 24 23 23 23 22 22 21 21 20 20 19 19 19 19 19 18 18 18 18 18 17 17 17 17 17 17 17 17 17 17 17 17 17 17 17 17
30 29 29 29 29 29 29 29 29 27 26 25 24 24 23 23 22 22 21 21 20 20 19 19 19 19 19 19 18 18 18 18 18 17 17 17 17 17 17 17 17 17 17 17 17 17 17 17 17
28 29 30 30 29 29 29 29 29 27 26 25 25 24 23 23 22 21 21 20 20 20 19 19 19 19 19 18 18 18 18 18 18 17 17 17 17 17 17 17 17 17 17 17 17 17 17 17 17
30 30 30 30 30 29 29 29 29 26 26 26 25 24 23 22 22 21 21 20 20 19 19 19 19 19 19 18 18 18 18 18 17 17 17 17 17 17 17 17 17 17 17 17 17 17 17 17 17
30 30 30 30 30 30 29 30 28 26 26 26 25 24 23 22 22 21 21 20 20 19 19 19 19 19 18 18 18 18 18 17 17 17 17 17 17 17 17 17 17 17 17 17 17 17 17 17 16
29 30 29 29 29 29 29 29 28 27 26 26 25 24 24 23 22 21 20 20 20 19 19 19 19 19 18 18 18 17 17 17 17 17 17 17 17 17 17 17 17 17 17 17 17 17 17 17 16
29 29 29 29 29 29 29 29 28 27 26 26 25 25 24 23 22 21 20 20 19 19 19 19 18 19 18 18 17 17 17 17 17 17 17 17 17 17 17 17 17 17 16 16 16 16 16 16 16
28 28 29 29 29 28 28 28 28 27 27 26 25 25 24 23 22 21 20 20 19 19 19 18 18 18 18 18 18 17 17 17 17 17 17 17 17 16 16 16 16 16 16 16 16 16 16 16 16
28 29 29 29 28 28 28 28 27 27 26 26 25 25 24 23 22 21 20 20 20 19 19 18 18 18 18 18 17 17 17 17 17 17 17 17 16 16 16 16 16 16 16 16 16 16 16 16 16
28 29 29 28 28 29 28 28 28 27 27 26 25 25 24 23 22 21 21 20 20 20 19 18 18 18 18 18 17 17 17 17 17 17 17 16 16 16 16 16 16 16 16 16 16 16 16 16 16
28 29 28 28 28 28 28 28 28 27 26 26 25 25 24 23 22 21 21 20 20 20 19 18 18 18 18 18 17 17 17 17 17 17 17 16 16 16 16 16 16 16 16 16 16 16 16 16 16
28 28 28 28 29 27 28 28 28 28 27 26 26 24 23 23 22 21 21 20 20 19 19 18 18 18 18 17 17 17 17 17 17 17 17 16 16 16 16 16 16 16 16 16 16 16 16 16 16
28 27 27 27 27 28 28 27 27 27 27 26 26 24 23 22 22 21 20 20 20 19 19 18 18 18 18 17 17 17 17 17 17 16 17 16 16 16 16 16 16 16 16 16 16 16 16 16 16
28 28 27 27 27 28 27 27 27 27 26 25 24 24 23 22 22 21 20 20 19 19 19 18 18 18 17 17 17 17 17 17 16 16 16 16 16 16 16 16 16 16 16 16 16 16 16 16 16
28 28 29 28 28 27 27 27 27 26 25 25 24 24 23 22 21 21 20 19 19 19 18 18 18 17 17 17 17 17 17 16 16 16 16 16 16 16 16 16 16 16 16 16 16 16 16 16 16
28 28 28 27 26 26 27 27 27 26 26 25 25 24 23 22 21 20 19 19 18 18 18 18 17 17 17 17 17 17 16 16 16 16 16 16 16 16 16 16 16 16 16 16 16 15 15 15 15
27 27 27 28 27 27 26 27 27 26 26 25 25 23 22 21 21 20 19 19 18 18 18 18 17 17 17 17 17 16 16 16 16 16 16 16 16 16 15 16 16 15 15 15 15 15 15 15 15
27 27 27 26 26 26 27 26 26 25 25 24 24 22 22 21 20 20 19 19 18 18 18 17 17 17 17 16 16 16 16 16 16 16 16 15 15 15 15 15 15 15 15 15 15 15 15 15 15
Wind_Speed
10 9 6 5 5 1 5 6 5 4 5 6 5 4 5 7 7 5 6 8 8 10 11 12 9 8 8 8 7 7 7 7 7 7 6 6 6 6 5 5 4 4 4 4 4 4 4 4 4
8 6 6 5 2 2 6 6 5 6 5 4 4 4 5 7 7 6 7 9 9 10 11 10 11 8 8 8 8 8 8 7 7 6 6 6 5 5 5 4 5 5 4 4 4 4 3 3 3
7 7 5 3 1 3 6 6 5 5 4 2 3 4 4 5 5 5 8 10 10 10 10 12 10 8 8 8 8 7 7 7 6 6 6 6 5 5 5 4 4 4 4 4 3 3 3 2 2
5 5 5 2 3 4 4 4 3 4 3 2 2 4 4 5 3 6 10 11 10 9 10 13 10 8 7 7 7 7 7 6 5 5 5 5 4 4 4 3 3 3 4 4 3 2 2 2 2
6 5 4 3 3 3 3 2 1 2 2 2 2 4 5 5 6 10 11 10 9 9 10 12 10 8 7 7 7 6 6 5 5 4 4 4 4 4 3 2 2 3 4 4 3 3 1 1 2
5 5 4 3 3 3 2 1 1 1 2 3 3 4 5 6 8 10 10 9 8 8 9 12 11 8 7 6 6 5 5 4 4 4 4 4 4 4 3 3 3 4 3 3 3 3 2 2 1
6 5 3 2 3 3 2 1 1 1 2 2 3 4 6 8 9 9 10 9 8 8 8 8 9 9 8 7 5 5 4 4 4 4 4 3 4 4 4 4 4 3 3 3 3 2 2 1 1
5 4 5 4 3 3 3 2 1 1 2 3 2 2 6 9 10 10 10 9 8 7 7 6 7 7 7 8 7 4 4 3 3 3 3 2 3 3 3 3 4 3 2 2 2 2 2 1 1
5 6 5 3 2 2 3 1 1 1 3 3 2 3 7 13 12 11 10 9 8 7 6 5 5 5 4 5 6 6 5 4 4 4 3 3 2 2 3 4 5 3 2 2 2 1 1 1 2
6 7 3 1 1 1 2 1 1 3 4 4 5 7 11 13 13 12 11 10 9 8 6 5 5 4 4 3 4 3 3 4 2 2 1 1 1 1 2 4 2 1 1 1 1 1 1 2 1
6 5 2 2 2 2 3 2 2 3 3 2 5 9 12 13 12 11 10 9 9 8 6 5 4 4 3 3 3 2 2 2 2 1 0 0 1 1 1 1 2 1 1 1 2 1 1 1 2
6 4 4 4 3 4 4 3 3 2 1 3 5 11 13 13 12 11 10 9 8 8 7 5 5 4 3 2 2 2 2 2 1 1 1 1 1 1 1 1 2 1 1 1 1 1 2 2 2
8 4 4 3 4 4 4 4 3 1 2 4 7 11 12 12 10 9 8 8 8 7 6 5 4 4 3 2 1 2 1 1 2 1 0 1 1 1 1 1 2 2 1 1 0 1 2 1 1
4 5 5 4 4 5 5 4 4 2 4 6 8 9 10 10 10 9 8 8 7 6 6 5 5 4 3 2 2 1 1 1 1 0 0 1 1 1 2 1 1 1 1 1 1 1 1 1 2
5 6 7 5 5 5 6 7 5 4 6 7 7 8 9 9 9 9 8 8 7 7 6 5 5 4 3 3 2 2 1 1 1 0 0 1 1 1 2 1 1 1 1 0 0 0 0 1 1
8 10 9 6 5 5 8 7 6 7 7 7 7 8 8 8 9 8 8 7 7 6 6 6 5 5 4 3 2 1 1 1 0 0 0 1 2 2 2 1 1 1 1 1 0 1 1 1 1
10 10 8 6 5 5 8 6 5 7 7 7 7 8 8 8 8 7 7 7 7 6 6 6 5 5 5 4 3 2 1 1 1 0 0 1 2 2 2 1 1 1 1 1 1 1 1 1 1
8 9 8 7 4 5 8 6 5 7 7 7 8 8 8 8 7 6 6 7 6 6 6 6 6 5 4 4 3 2 2 1 1 1 0 1 1 2 2 2 1 2 1 1 1 1 1 1 1
6 8 9 5 3 6 7 7 5 7 8 8 8 8 7 7 7 6 6 7 7 7 7 7 6 6 4 4 3 3 3 2 1 1 1 1 2 2 2 2 1 2 1 2 2 2 2 2 2
8 9 8 5 3 5 6 5 4 6 8 8 8 7 7 7 7 6 7 7 8 8 8 7 7 6 5 3 2 2 2 2 1 1 1 2 2 2 2 2 2 2 2 2 2 2 3 2 2
10 10 8 6 4 6 6 7 6 6 7 7 8 7 7 7 7 7 7 7 8 8 8 7 6 6 5 4 3 3 3 3 2 2 2 1 2 2 2 3 3 3 3 2 3 3 4 3 2
10 8 7 7 8 6 7 7 5 6 6 7 8 8 8 7 7 7 7 7 7 7 7 7 6 6 5 4 3 3 3 2 2 2 1 1 2 2 2 3 3 3 3 2 3 3 3 4 3
7 5 7 9 9 8 8 8 4 7 6 6 7 8 8 7 7 7 7 7 7 7 7 7 7 6 5 4 4 4 3 2 1 2 1 2 1 2 2 2 2 3 3 2 3 3 4 3 4
5 5 6 9 10 11 8 9 5 4 5 5 6 6 6 7 7 7 6 6 5 5 6 6 7 6 5 5 4 4 3 3 2 2 2 2 2 2 2 2 2 3 3 3 3 3 3 3 3
9 9 7 9 9 8 5 7 3 1 2 3 5 6 6 6 6 6 7 6 6 6 5 5 6 6 6 5 4 4 3 3 3 3 2 3 2 2 1 2 2 2 3 3 2 2 3 3 3
10 12 9 7 7 5 5 6 2 3 2 2 3 4 5 7 6 6 6 6 6 6 5 5 5 5 5 4 4 3 4 3 3 3 3 2 2 2 1 2 2 2 2 2 2 2 2 2 2
10 11 8 9 8 7 5 3 3 4 4 3 3 4 5 6 7 6 6 6 6 5 5 4 4 4 4 4 3 3 3 3 3 3 3 2 2 1 1 1 2 2 2 2 1 1 1 1 2
7 7 7 9 8 8 6 6 4 4 4 4 3 3 4 6 7 6 6 6 6 5 5 4 4 4 4 3 3 3 3 3 3 3 2 2 2 1 1 1 1 1 1 1 2 1 1 1 1
8 8 8 8 8 8 7 3 2 2 2 2 3 3 4 6 7 7 6 5 5 5 5 4 3 3 3 2 2 2 2 3 3 3 3 2 2 1 1 1 1 1 1 1 1 1 1 2 1
6 7 8 8 7 8 8 2 5 3 2 2 2 3 4 6 7 7 6 6 5 4 4 4 3 2 2 2 2 1 1 2 2 2 2 2 2 2 2 2 2 2 1 1 2 2 2 2 2
Wind_Direction
181 186 208 231 238 136 72 69 56 66 65 57 50 38 39 32 22 58 98 121 124 128 127 134 129 128 125 123 123 119 115 111 107 103 103 105 106 105 104 101 97 103 110 124 133 136 143 143 151
184 192 224 243 265 99 80 68 66 57 72 89 80 61 59 63 56 93 120 127 134 129 130 130 127 127 124 122 120 119 117 111 108 105 104 101 99 100 101 98 93 94 99 111 126 130 139 143 149
192 222 254 251 56 53 72 72 72 79 103 106 89 56 46 61 82 106 122 139 138 133 129 122 131 129 124 122 120 119 117 112 108 102 99 96 95 94 95 93 91 90 88 92 108 119 136 150 145
213 224 235 227 98 64 62 76 88 117 125 112 111 92 82 66 89 112 131 144 140 133 128 125 134 131 126 123 120 120 117 115 112 106 99 96 93 91 88 89 97 97 92 88 83 92 131 149 148
240 248 216 168 112 80 74 79 135 146 131 122 129 103 94 87 104 124 138 143 139 132 127 128 135 134 130 124 120 118 115 114 115 111 102 93 88 80 73 71 107 105 92 85 77 66 82 131 143
237 239 217 169 123 105 92 99 170 151 133 135 140 119 97 117 129 136 141 143 136 132 129 129 138 140 137 130 125 120 115 111 114 108 99 85 79 72 65 62 105 109 90 79 72 68 70 80 116
258 243 224 186 141 121 87 99 214 123 149 137 143 123 122 136 134 141 142 141 138 137 135 138 145 150 153 145 134 124 118 114 114 108 98 86 78 74 72 70 86 97 91 81 75 60 54 61 80
270 246 211 200 179 120 109 127 7 288 103 117 163 140 140 145 145 145 144 144 142 141 141 143 148 147 157 151 142 135 129 126 123 118 107 108 123 120 108 108 85 74 77 74 64 51 48 66 72
251 236 213 208 197 135 135 155 92 108 138 144 126 78 119 141 149 151 151 152 148 147 147 151 148 151 156 145 140 154 154 153 169 153 153 195 146 114 127 73 70 55 52 62 59 56 81 143 160
234 232 214 258 275 190 194 231 166 183 174 157 134 115 131 148 158 162 162 161 157 156 155 155 156 155 158 145 148 165 162 150 170 109 129 148 71 58 39 92 94 66 56 101 88 83 175 229 171
233 244 243 248 269 267 233 229 224 223 206 176 167 154 154 160 167 169 167 165 159 155 155 158 157 158 160 154 155 162 158 149 165 142 206 354 339 25 12 45 145 152 168 112 120 164 62 51 27
232 241 259 263 260 247 243 228 213 239 32 65 142 155 161 168 173 172 168 166 160 157 160 155 155 158 160 144 154 179 169 158 158 133 261 296 324 340 3 352 356 5 59 50 33 57 50 41 28
226 232 245 254 243 238 233 218 206 129 86 116 134 152 163 169 171 169 168 166 165 161 157 156 158 147 147 150 185 163 175 179 144 146 205 314 306 326 338 357 344 334 12 65 85 70 66 43 41
234 243 243 234 218 205 215 208 195 157 137 139 147 158 164 169 170 166 170 171 168 163 159 154 165 155 159 162 174 169 169 170 206 185 300 293 311 329 318 323 324 328 343 5 12 51 55 38 26
235 232 219 203 209 205 220 213 204 164 158 153 156 160 165 169 170 173 175 177 173 168 161 159 163 154 161 170 185 176 183 180 191 165 254 278 279 294 295 291 285 312 326 281 248 333 28 42 26
222 225 218 189 205 208 231 230 170 163 170 165 164 164 166 169 175 176 177 179 170 168 163 167 166 158 162 176 199 190 182 171 193 251 231 280 291 288 287 299 294 305 283 282 272 286 17 28 0
216 224 219 188 193 215 234 245 161 174 180 175 172 170 169 167 175 175 178 180 175 173 171 174 175 171 168 174 187 194 183 251 271 271 285 296 285 284 282 289 310 266 262 287 292 23 344 354 337
219 230 223 218 194 227 236 239 179 186 189 186 178 177 175 171 172 171 177 177 173 172 173 177 181 174 176 180 184 196 202 216 242 258 308 293 281 279 279 252 262 263 257 260 299 304 296 288 276
242 238 235 224 208 236 240 244 214 194 196 196 189 185 180 173 164 166 174 176 172 173 175 179 180 171 185 194 205 205 206 212 211 226 271 270 274 270 266 278 240 255 250 269 262 253 235 245 242
233 234 234 215 207 241 238 244 224 201 204 200 196 193 187 175 171 174 175 178 181 180 181 181 181 178 190 188 207 220 236 229 217 240 249 273 272 270 248 261 258 248 242 245 263 268 264 258 261
231 239 239 231 212 222 231 230 210 196 203 202 202 200 195 186 179 176 177 180 183 184 187 187 185 184 192 194 203 201 204 222 213 219 221 256 266 261 274 266 264 260 257 254 254 253 255 266 262
231 234 242 234 231 223 228 251 197 186 195 200 204 203 198 192 188 182 179 180 185 187 183 184 184 187 189 198 210 218 227 237 245 249 238 241 247 265 263 266 259 264 265 260 254 249 265 269 270
239 236 235 236 240 247 228 255 208 179 205 203 202 204 198 190 186 182 180 180 182 183 181 181 182 186 189 200 205 224 240 246 250 255 259 267 247 263 273 266 262 257 263 269 277 271 270 266 273
211 209 220 231 236 241 236 248 239 201 214 207 194 193 192 191 187 181 173 167 169 174 178 176 174 181 188 202 210 226 244 257 265 268 267 253 250 255 266 262 258 257 268 266 265 263 256 269 282
210 223 222 220 224 235 207 240 241 173 197 213 198 189 184 180 176 174 174 174 170 168 167 168 170 180 189 197 210 224 237 243 245 260 255 268 270 261 270 275 267 270 267 265 262 257 270 261 265
217 232 242 248 246 233 192 233 193 134 145 173 182 181 177 175 170 168 168 168 164 163 166 173 177 183 185 190 203 218 233 249 252 257 269 263 274 282 292 268 265 270 270 264 249 249 247 239 245
216 230 250 261 261 256 222 215 196 183 200 191 175 166 167 172 169 162 157 158 157 158 163 172 174 185 193 197 202 212 229 247 258 253 248 254 265 261 249 262 261 264 258 257 250 262 251 226 225
245 227 229 242 247 251 231 227 219 193 199 183 171 158 154 161 161 156 152 155 156 155 156 157 168 181 191 196 210 212 222 232 247 256 258 260 270 279 260 252 253 259 254 247 242 221 184 183 192
202 213 234 245 257 259 252 231 100 175 169 164 157 145 155 159 160 156 156 156 155 153 151 153 158 170 179 188 198 216 222 225 233 245 253 248 258 251 237 247 247 243 231 207 199 217 174 183 186
230 230 229 240 243 251 267 257 97 105 108 135 139 131 137 151 155 152 152 151 152 151 146 143 149 163 173 177 182 190 212 226 234 239 249 239 235 232 226 232 232 233 217 196 195 207 199 193 187
Height
1513 1513 1513 1515 1508 1500 1502 1501 1499 1501 1503 1508 1509 1508 1507 1508 1510 1520 1523 1521 1522 1523 1523 1522 1522 1523 1524 1524 1525 1525 1525 1525 1526 1526 1526 1526 1526 1526 1525 1525 1525 1525 1525 1525 1525 1525 1526 1526 1526
1514 1514 1516 1512 1500 1504 1505 1500 1502 1504 1507 1510 1510 1510 1510 1513 1517 1520 1522 1522 1523 1524 1525 1524 1524 1524 1525 1526 1526 1526 1526 1527 1527 1527 1527 1527 1526 1526 1526 1526 1525 1525 1525 1525 1526 1526 1526 1526 1526
1515 1515 1515 1502 1499 1503 1504 1502 1503 1507 1509 1510 1510 1512 1513 1516 1520 1521 1522 1523 1525 1526 1526 1524 1525 1526 1526 1527 1527 1527 1528 1528 1528 1528 1528 1527 1527 1527 1526 1526 1526 1525 1525 1525 1525 1526 1526 1526 1526
1517 1517 1512 1502 1503 1501 1501 1503 1505 1507 1509 1510 1510 1513 1516 1520 1521 1522 1522 1524 1526 1528 1528 1526 1526 1527 1528 1528 1529 1529 1529 1529 1529 1529 1529 1528 1528 1527 1527 1526 1526 1525 1525 1525 1526 1526 1526 1526 1526
1517 1512 1503 1502 1502 1501 1501 1504 1506 1505 1507 1510 1511 1513 1517 1521 1521 1522 1523 1526 1528 1529 1530 1528 1528 1529 1529 1529 1530 1530 1530 1530 1530 1530 1530 1529 1529 1528 1527 1525 1525 1525 1525 1526 1526 1526 1526 1526 1526
1514 1506 1502 1504 1502 1501 1503 1505 1505 1505 1507 1510 1511 1513 1518 1521 1522 1524 1525 1527 1529 1530 1531 1529 1529 1530 1530 1531 1531 1531 1531 1531 1531 1531 1531 1530 1529 1529 1527 1524 1523 1525 1526 1527 1527 1527 1527 1527 1527
1511 1501 1500 1500 1502 1502 1504 1506 1505 1505 1507 1510 1512 1513 1519 1522 1523 1524 1526 1528 1529 1530 1531 1532 1532 1531 1531 1532 1532 1533 1532 1532 1532 1532 1531 1531 1530 1530 1528 1526 1526 1527 1527 1527 1527 1527 1527 1527 1527
1511 1502 1499 1498 1501 1502 1504 1506 1507 1507 1508 1512 1513 1513 1517 1521 1523 1525 1527 1528 1530 1531 1532 1532 1534 1534 1534 1534 1534 1534 1533 1533 1533 1533 1532 1532 1532 1531 1530 1529 1529 1528 1528 1528 1528 1528 1528 1527 1527
1511 1503 1501 1498 1499 1501 1504 1505 1507 1509 1510 1512 1514 1515 1517 1520 1522 1525 1527 1529 1530 1531 1532 1533 1534 1535 1536 1536 1535 1535 1534 1534 1534 1534 1533 1533 1534 1533 1532 1531 1530 1530 1529 1529 1529 1528 1528 1528 1528
1508 1501 1499 1498 1498 1500 1503 1504 1506 1507 1508 1511 1514 1516 1517 1519 1522 1524 1526 1528 1529 1531 1532 1533 1534 1535 1536 1536 1536 1536 1536 1536 1535 1535 1535 1535 1535 1534 1534 1532 1531 1531 1530 1530 1529 1529 1529 1528 1529
1504 1499 1499 1500 1502 1502 1503 1504 1506 1505 1505 1508 1512 1515 1517 1519 1522 1524 1526 1527 1529 1531 1532 1533 1534 1535 1535 1536 1536 1537 1537 1536 1536 1536 1535 1535 1535 1535 1535 1534 1533 1532 1531 1531 1531 1530 1530 1530 1529
1503 1502 1502 1502 1503 1503 1503 1504 1505 1506 1507 1510 1511 1514 1516 1519 1521 1523 1525 1527 1529 1530 1532 1533 1534 1534 1535 1536 1536 1536 1537 1536 1537 1536 1535 1535 1536 1535 1535 1534 1534 1533 1533 1532 1532 1531 1531 1530 1529
1502 1501 1503 1503 1503 1503 1504 1504 1505 1507 1509 1511 1512 1514 1516 1518 1521 1523 1525 1527 1529 1530 1531 1532 1533 1534 1534 1534 1535 1536 1536 1537 1536 1535 1535 1535 1535 1535 1535 1534 1534 1534 1533 1533 1532 1532 1531 1530 1530
1501 1501 1501 1501 1502 1503 1503 1503 1505 1507 1509 1511 1512 1514 1516 1518 1520 1523 1525 1527 1528 1529 1530 1531 1533 1533 1534 1534 1535 1535 1536 1535 1536 1536 1535 1534 1535 1534 1534 1534 1533 1533 1533 1533 1532 1532 1531 1531 1530
1502 1500 1498 1498 1500 1501 1502 1501 1502 1506 1509 1510 1512 1514 1516 1518 1520 1522 1524 1526 1527 1528 1529 1530 1532 1533 1533 1534 1535 1535 1535 1535 1535 1535 1534 1534 1534 1534 1533 1534 1533 1533 1533 1532 1532 1532 1531 1531 1530
1498 1497 1496 1495 1497 1499 1501 1500 1500 1505 1507 1509 1511 1514 1516 1518 1520 1522 1524 1526 1527 1528 1529 1530 1531 1532 1533 1533 1534 1535 1535 1535 1535 1534 1534 1533 1533 1532 1533 1533 1533 1532 1532 1532 1532 1531 1531 1531 1530
1494 1495 1494 1494 1495 1496 1497 1496 1499 1504 1506 1508 1510 1513 1515 1517 1519 1521 1523 1524 1526 1527 1528 1529 1530 1531 1532 1533 1533 1534 1534 1534 1534 1533 1533 1532 1532 1532 1532 1532 1531 1531 1531 1531 1531 1531 1531 1531 1530
1495 1493 1493 1494 1493 1495 1495 1494 1498 1502 1504 1506 1509 1511 1514 1516 1519 1520 1522 1523 1524 1526 1527 1528 1529 1530 1531 1532 1532 1532 1533 1533 1533 1532 1532 1531 1531 1531 1531 1531 1530 1531 1531 1530 1530 1530 1530 1530 1529
1491 1493 1494 1492 1492 1495 1495 1495 1496 1500 1503 1505 1507 1509 1512 1515 1518 1519 1521 1522 1523 1524 1525 1526 1528 1528 1529 1531 1531 1532 1532 1532 1532 1531 1530 1530 1529 1529 1529 1530 1529 1529 1529 1529 1529 1529 1529 1529 1529
1493 1495 1493 1492 1493 1494 1494 1495 1495 1499 1501 1504 1506 1508 1511 1514 1516 1518 1520 1521 1522 1523 1524 1525 1526 1527 1528 1529 1530 1530 1531 1531 1530 1530 1529 1529 1528 1528 1528 1527 1528 1528 1528 1527 1528 1528 1528 1528 1528
1493 1492 1491 1492 1493 1492 1494 1496 1495 1497 1500 1503 1505 1507 1509 1512 1514 1516 1518 1520 1521 1522 1523 1525 1525 1526 1527 1528 1529 1529 1529 1529 1530 1529 1528 1528 1527 1527 1526 1526 1526 1526 1526 1527 1526 1526 1526 1526 1526
1493 1487 1489 1491 1494 1491 1493 1498 1493 1493 1496 1499 1503 1505 1507 1510 1513 1515 1517 1518 1519 1521 1522 1523 1524 1525 1526 1527 1528 1528 1528 1528 1528 1528 1527 1527 1526 1526 1525 1525 1525 1525 1525 1525 1525 1525 1525 1524 1525
1487 1486 1488 1489 1490 1491 1489 1495 1491 1491 1495 1496 1499 1502 1505 1508 1511 1513 1515 1516 1518 1519 1521 1522 1523 1523 1524 1525 1526 1526 1527 1527 1527 1527 1526 1525 1525 1525 1524 1524 1524 1523 1523 1523 1523 1522 1522 1523 1523
1487 1489 1489 1488 1486 1499 1490 1494 1493 1486 1491 1493 1497 1501 1504 1507 1509 1511 1513 1515 1517 1518 1520 1521 1521 1522 1523 1524 1524 1525 1525 1525 1526 1525 1525 1525 1524 1524 1523 1523 1522 1522 1522 1522 1521 1521 1520 1520 1520
1488 1491 1496 1498 1497 1494 1486 1492 1491 1486 1489 1492 1495 1499 1502 1505 1508 1510 1512 1513 1515 1517 1518 1519 1519 1520 1521 1522 1523 1523 1523 1524 1524 1524 1523 1523 1523 1522 1521 1522 1521 1521 1520 1520 1520 1519 1519 1518 1518
1484 1485 1495 1503 1497 1488 1489 1491 1486 1486 1490 1493 1496 1498 1501 1504 1506 1508 1510 1512 1514 1515 1516 1518 1518 1519 1520 1520 1521 1521 1521 1522 1522 1522 1522 1521 1521 1521 1520 1519 1519 1519 1519 1519 1518 1518 1517 1516 1516
1482 1481 1476 1485 1486 1491 1487 1486 1486 1487 1490 1492 1494 1497 1499 1502 1505 1507 1509 1511 1513 1514 1515 1516 1517 1517 1518 1519 1519 1519 1519 1520 1520 1519 1519 1519 1519 1519 1518 1518 1518 1517 1517 1517 1517 1516 1516 1515 1516
1477 1477 1482 1485 1497 1499 1491 1488 1484 1486 1486 1489 1492 1495 1498 1501 1503 1506 1508 1510 1511 1513 1514 1515 1515 1516 1517 1517 1517 1518 1517 1517 1517 1517 1517 1516 1517 1517 1516 1516 1516 1516 1516 1516 1516 1515 1515 1514 1514
1482 1482 1481 1480 1481 1492 1496 1489 1478 1483 1485 1488 1491 1494 1497 1499 1502 1504 1507 1509 1511 1512 1513 1514 1514 1515 1516 1516 1515 1515 1515 1515 1515 1515 1515 1514 1515 1515 1515 1515 1515 1514 1514 1514 1514 1515 1514 1514 1514
1476 1477 1480 1488 1489 1485 1486 1491 1481 1484 1487 1489 1492 1495 1497 1499 1501 1504 1506 1508 1509 1511 1512 1513 1514 1514 1514 1514 1514 1514 1514 1513 1513 1513 1512 1512 1513 1513 1513 1513 1513 1513 1513 1513 1513 1513 1513 1513 1513